User: anonymous   Login
Location: Dannhausen
(51.8650°N, 10.1026°E)
Time: 03:53:49
(UTC+00:00)
Language:

VELOX 1 - Orbit

View from above orbital plane
View from above orbital plane
View from above satellite
View from above satellite

Ground track
Ground track

The orbit data is extracted from the following two-line orbital elements,

1 40057U 14034E   21289.69656531  .00000870  00000-0  12737-3 0  9999
2 40057  98.3427  88.0470 0011409  35.9563 324.2424 14.78313892393455
Epoch (UTC): 16 October 2021 16:43:03
Eccentricity: 0.0011409
inclination: 98.3427°
perigee height: 626 km
apogee height: 642 km
right ascension of ascending node: 88.0470°
argument of perigee: 35.9563°
revolutions per day: 14.78313892
mean anomaly at epoch: 324.2424°
orbit number at epoch: 39345

The dashed part of the orbit path shows where the satellite is in the earth's shadow,  

DLR